Location: Easter Hill Village
(37.9235°N, 122.3444°W)
Time: 09:08:46
(UTC+00:00)

S3M - Pass Details

Date: 16 September 2019
Orbit: 949 x 1004 km, 83.0° (Epoch: 15 October)

Event Time Altitude Azimuth Distance (km) Brightness Sun altitude
Rises 12:39:04 0° 356° (N) 3,641 7.2 -15.0°
Reaches altitude 10° 12:41:36 10° 359° (N) 2,697 6.5 -14.5°
Maximum altitude 12:47:44 65° 82° (E) 1,057 4.5 -13.3°
Drops below altitude 10° 12:53:53 10° 163° (SSE) 2,717 6.4 -12.1°
Sets 12:56:26 0° 167° (SSE) 3,669 7.0 -11.6°
